πŸ“Š DonnΓ©es MΓ©tΓ©o - Bordeaux

Total mesures

14,517

TempΓ©rature moyenne

18.9Β°C

Temp. Min/Max

2.9Β° / 42.4Β°

HumiditΓ© moyenne

64.8%

Pression moyenne

1014.8 hPa
enregistrements
ID Date/Heure Temp (Β°C) HumiditΓ© (%) Pression (hPa) Tendance LuminositΓ© (lux) Situation
6917 08/05/2026 09:15 19.9 59.0 1,009.6 β†’ Stable 81,204 frais-stable
6916 08/05/2026 08:45 19.2 61.0 1,009.6 β†’ Stable 73,332 frais-stable
6915 08/05/2026 08:15 18.1 65.0 1,009.6 β†’ Stable 61,764 frais-stable
6914 08/05/2026 07:45 16.9 68.0 1,009.6 β†’ Stable 52,500 frais-stable
6913 08/05/2026 07:15 15.6 70.0 1,009.6 β†’ Stable 39,540 pluvieux-gris
6912 08/05/2026 06:45 13.8 75.0 1,009.2 β†’ Stable 30,372 pluvieux-gris
6911 08/05/2026 06:15 12.5 83.0 1,009.2 β†’ Stable 17,688 pluvieux-gris
6910 08/05/2026 05:45 11.2 88.0 1,009.0 β†’ Stable 10,272 pluvieux-gris
6909 08/05/2026 05:15 10.6 90.0 1,009.0 β†’ Stable 828 pluvieux-gris
6908 08/05/2026 04:45 10.7 90.0 1,009.1 β†’ Stable 0 pluvieux-gris
6907 08/05/2026 04:15 11.0 87.0 1,009.1 β†’ Stable 0 pluvieux-gris
6906 08/05/2026 03:45 11.3 85.0 1,009.4 β†’ Stable 0 pluvieux-gris
6905 08/05/2026 03:15 11.8 83.0 1,009.4 β†’ Stable 0 pluvieux-gris
6904 08/05/2026 02:45 11.7 83.0 1,009.1 β†’ Stable 0 pluvieux-gris
6903 08/05/2026 02:15 12.0 81.0 1,009.1 β†’ Stable 0 pluvieux-gris
6902 08/05/2026 01:45 12.6 78.0 1,009.3 β†’ Stable 0 pluvieux-gris
6901 08/05/2026 01:15 12.9 78.0 1,009.3 β†’ Stable 0 pluvieux-gris
6900 08/05/2026 00:45 13.0 80.0 1,009.7 β†’ Stable 0 pluvieux-gris
6899 08/05/2026 00:15 13.3 78.0 1,009.7 β†’ Stable 0 pluvieux-gris
6898 07/05/2026 23:45 13.5 79.0 1,009.7 β†’ Stable 0 pluvieux-gris
6897 07/05/2026 23:15 13.9 80.0 1,009.7 β†’ Stable 0 pluvieux-gris
6896 07/05/2026 22:45 14.4 78.0 1,009.4 β†’ Stable 0 pluvieux-gris
6895 07/05/2026 22:15 15.1 73.0 1,009.4 β†’ Stable 0 pluvieux-gris
6894 07/05/2026 21:45 15.6 71.0 1,009.5 β†’ Stable 0 pluvieux-gris
6893 07/05/2026 21:30 15.8 69.0 1,009.5 β†’ Stable 0 frais-stable
6892 07/05/2026 21:15 16.1 68.0 1,009.5 β†’ Stable 0 frais-stable
6891 07/05/2026 20:45 16.6 68.0 1,009.2 β†’ Stable 0 frais-stable
6890 07/05/2026 20:15 17.4 61.0 1,009.2 β†’ Stable 0 frais-stable
6889 07/05/2026 19:45 18.0 57.0 1,009.1 β†’ Stable 0 frais-stable
6888 07/05/2026 19:15 19.0 50.0 1,009.1 β†’ Stable 0 frais-stable
6887 07/05/2026 18:45 19.6 49.0 1,009.3 β†’ Stable 6,852 frais-stable
6886 07/05/2026 18:15 19.8 49.0 1,009.3 β†’ Stable 16,764 frais-stable
6885 07/05/2026 17:45 20.2 46.0 1,009.1 β†’ Stable 26,208 frais-stable
6884 07/05/2026 17:15 20.6 47.0 1,009.1 β†’ Stable 38,052 frais-stable
6883 07/05/2026 16:45 20.8 44.0 1,009.3 β†’ Stable 48,336 frais-stable
6882 07/05/2026 16:15 20.8 43.0 1,009.3 β†’ Stable 57,588 frais-stable
6881 07/05/2026 15:45 21.1 42.0 1,009.2 β†’ Stable 67,776 frais-stable
6880 07/05/2026 15:15 20.9 42.0 1,009.2 β†’ Stable 78,516 frais-stable
6879 07/05/2026 14:45 20.9 41.0 1,009.8 β†’ Stable 86,016 frais-stable
6878 07/05/2026 14:15 20.9 40.0 1,009.8 β†’ Stable 92,220 frais-stable
6877 07/05/2026 13:45 20.7 41.0 1,010.6 β†’ Stable 97,128 frais-stable
6876 07/05/2026 13:15 20.3 44.0 1,010.6 β†’ Stable 100,920 frais-stable
6875 07/05/2026 12:45 19.9 45.0 1,011.2 β†’ Stable 103,332 frais-stable
6874 07/05/2026 12:15 19.7 46.0 1,011.2 β†’ Stable 104,352 frais-stable
6873 07/05/2026 11:45 19.3 46.0 1,011.5 β†’ Stable 102,228 frais-stable
6872 07/05/2026 11:15 19.1 45.0 1,011.5 β†’ Stable 101,940 frais-stable
6871 07/05/2026 10:45 18.6 46.0 1,011.9 β†’ Stable 99,444 frais-stable
6870 07/05/2026 10:15 17.9 53.0 1,011.9 β†’ Stable 87,876 frais-stable
6869 07/05/2026 09:45 17.6 54.0 1,012.2 β†’ Stable 83,148 frais-stable
6868 07/05/2026 09:15 16.9 58.0 1,012.2 β†’ Stable 74,448 frais-stable
6867 07/05/2026 08:45 16.3 60.0 1,012.2 β†’ Stable 69,816 frais-stable
6866 07/05/2026 08:15 15.4 69.0 1,012.2 β†’ Stable 58,980 frais-stable
6865 07/05/2026 07:45 14.5 77.0 1,011.9 β†’ Stable 51,384 pluvieux-gris
6864 07/05/2026 07:15 12.9 80.0 1,011.9 β†’ Stable 39,540 pluvieux-gris
6863 07/05/2026 06:45 11.5 84.0 1,011.6 β†’ Stable 30,276 pluvieux-gris
6862 07/05/2026 06:15 10.3 86.0 1,011.6 β†’ Stable 17,592 pluvieux-gris
6861 07/05/2026 05:45 9.0 89.0 1,011.4 β†’ Stable 10,092 pluvieux-gris
6860 07/05/2026 05:15 8.7 90.0 1,011.4 β†’ Stable 744 pluvieux-gris
6859 07/05/2026 04:45 8.7 91.0 1,011.4 β†’ Stable 0 pluvieux-gris
6858 07/05/2026 04:15 8.8 90.0 1,011.4 β†’ Stable 0 pluvieux-gris
6857 07/05/2026 03:45 9.0 90.0 1,011.2 β†’ Stable 0 pluvieux-gris
6856 07/05/2026 03:15 9.4 89.0 1,011.2 β†’ Stable 0 pluvieux-gris
6855 07/05/2026 02:45 9.3 90.0 1,011.1 β†’ Stable 0 pluvieux-gris
6854 07/05/2026 02:15 9.7 90.0 1,011.1 β†’ Stable 0 pluvieux-gris
6853 07/05/2026 01:45 10.0 89.0 1,011.2 β†’ Stable 0 pluvieux-gris
6852 07/05/2026 01:15 10.0 89.0 1,011.1 β†’ Stable 0 pluvieux-gris
6851 07/05/2026 00:45 10.5 88.0 1,011.4 β†’ Stable 0 pluvieux-gris
6850 07/05/2026 00:15 10.5 88.0 1,011.4 β†’ Stable 0 pluvieux-gris
6849 06/05/2026 23:45 10.9 87.0 1,011.5 β†’ Stable 0 pluvieux-gris
6848 06/05/2026 23:15 11.0 88.0 1,011.5 β†’ Stable 0 pluvieux-gris
6847 06/05/2026 22:45 11.4 86.0 1,011.6 β†’ Stable 0 pluvieux-gris
6846 06/05/2026 22:15 11.7 86.0 1,011.6 β†’ Stable 0 pluvieux-gris
6845 06/05/2026 21:45 11.7 85.0 1,011.4 β†’ Stable 0 pluvieux-gris
6844 06/05/2026 21:15 11.9 82.0 1,011.4 β†’ Stable 0 pluvieux-gris
6843 06/05/2026 20:45 12.2 80.0 1,010.9 β†’ Stable 0 pluvieux-gris
6842 06/05/2026 20:15 12.6 78.0 1,010.9 β†’ Stable 0 pluvieux-gris
6841 06/05/2026 19:45 13.2 75.0 1,010.4 β†’ Stable 0 pluvieux-gris
6840 06/05/2026 19:31 13.4 70.0 1,010.4 β†’ Stable 0 pluvieux-gris
6839 06/05/2026 19:15 13.7 69.0 1,010.4 β†’ Stable 0 frais-stable
6838 06/05/2026 18:48 14.3 68.0 1,009.8 β†’ Stable 6,576 frais-stable
6837 06/05/2026 18:15 14.7 67.0 1,009.8 β†’ Stable 15,552 frais-stable
6836 06/05/2026 18:11 14.9 65.0 1,009.8 β†’ Stable 20,376 frais-stable
6835 06/05/2026 17:45 15.0 64.0 1,009.4 β†’ Stable 24,444 frais-stable
6834 06/05/2026 17:15 15.1 64.0 1,009.4 β†’ Stable 21,384 frais-stable
6833 06/05/2026 16:45 15.3 65.0 1,009.0 β†’ Stable 25,092 frais-stable
6832 06/05/2026 16:15 15.7 64.0 1,009.0 β†’ Stable 46,476 frais-stable
6831 29/04/2026 06:15 13.6 86.0 1,010.6 β†’ Stable 0 pluvieux-gris
6830 29/04/2026 05:45 15.2 91.0 1,007.8 β†’ Stable 5,556 pluvieux-gris
6829 29/04/2026 05:15 14.7 94.0 1,007.8 β†’ Stable 828 pluvieux-gris
6828 29/04/2026 04:45 14.9 93.0 1,007.7 β†’ Stable 0 pluvieux-gris
6827 29/04/2026 04:15 15.3 91.0 1,007.7 β†’ Stable 0 pluvieux-gris
6826 29/04/2026 03:45 15.1 92.0 1,008.1 β†’ Stable 0 pluvieux-gris
6825 29/04/2026 03:15 15.5 91.0 1,008.1 β†’ Stable 0 pluvieux-gris
6824 29/04/2026 02:45 15.4 90.0 1,007.6 β†’ Stable 0 pluvieux-gris
6823 29/04/2026 02:15 15.6 85.0 1,007.6 β†’ Stable 0 pluvieux-gris
6822 29/04/2026 01:45 15.3 88.0 1,008.4 β†’ Stable 0 pluvieux-gris
6821 29/04/2026 01:15 16.0 85.0 1,007.9 β†’ Stable 0 pluvieux-gris
6820 29/04/2026 00:45 16.2 87.0 1,008.7 β†’ Stable 0 pluvieux-gris (approx.)
6819 29/04/2026 00:15 16.4 87.0 1,008.7 β†’ Stable 0 pluvieux-gris (approx.)
6818 28/04/2026 23:45 16.6 87.0 1,009.0 β†’ Stable 0 pluvieux-gris (approx.)